sat.trackr.live / text

‹ back to catalog

STARLINK-33578

NORAD 63368 · 2025-063F

PAYLOAD ACTIVE UNKNOWN

§ Identity

Operator
Country
US
Launch date
2025-03-26
Launch site
AFWTR
Launch vehicle
Mass (kg)
RCS (m²)

Purposes: comms

External: N2YO · Heavens-Above · Gunter

§ Orbital elements

Epoch: 2026-05-24T23:13:34.913280Z

Period
94.11 min
Inclination
53.1581°
Eccentricity
0.0001011
Mean motion
15.30202419 rev/d
Perigee alt
474.5 km
Apogee alt
475.9 km
Semi-major
6,853.3 km
B*
8.9403e-4
RAAN
55.6257°
Arg perigee
73.5916°
Mean anomaly
286.5196°
Rev number
6,641

§ Raw data

STARLINK-335781 63368U 25063F   26144.96776520  .00026215  00000+0  89403-3 0  99932 63368  53.1581  55.6257 0001011  73.5916 286.5196 15.30202419 66416

JSON: /api/v1/satellites/63368 · /tle

For live sub-satellite position, see the globe view (requires WebGL).

§ Visibility from observer

Set your observer location to see the next 7 days of passes ≥ 10°. The values pass through the URL so the page stays shareable.

No JS? Fill the form by hand. The geolocation button needs JavaScript.